Regional Weather Roundup
Issued by NWS

Home | Current Version | Previous Version | Graphics & Text | Print | Product List | Glossary On
Versions: 1 2 3 4 5 6 7 8 9 10 11 12 13 14 15 16 17 18 19 20 21 22 23 24 25 26 27 28 29 30 31 32 33 34 35 36 37 38 39 40 41 42 43 44 45 46 47 48 49 50
000
ASUS43 KLSX 231807
RWRMO

WEATHER SUMMARY FOR MISSOURI
NATIONAL WEATHER SERVICE SPRINGFIELD MO
1200 PM CST THU FEB 23 2017

NOTE: "FAIR" INDICATES FEW OR NO CLOUDS BELOW 12,000 FEET WITH NO
       SIGNIFICANT WEATHER AND/OR OBSTRUCTIONS TO VISIBILITY.
       CURRENT SKY AND/OR WEATHER CONDITIONS ARE NOT AVAILABLE FOR
       CHILLICOTHE AND FARMINGTON.

MOZ001>031-035>038-043-044-053-054-231900-
...NORTHERN AND WESTERN MISSOURI...

CITY           SKY/WX    TMP DP  RH WIND       PRES   REMARKS
KANSAS CTY INT CLOUDY    50  40  68 E18G25    29.56F
6HR MIN TEMP:  49; 6HR MAX TEMP:  50;

KANSAS C DTWN  CLOUDY    51  41  68 E20G26    29.56F
6HR MIN TEMP:  51; 6HR MAX TEMP:  53;

LEE`S SUMMIT   CLOUDY    52  43  71 NE13      29.61F
6HR MIN TEMP:  50; 6HR MAX TEMP:  52;

ST JOSEPH      CLOUDY    47  41  80 E16       29.58F
6HR MIN TEMP:  43; 6HR MAX TEMP:  48; 6HR PCP: TRACE;

CHILLICOTHE      N/A     46  40  79 E8G22     29.68F
6HR MIN TEMP:  42; 6HR MAX TEMP:  47;

KIRKSVILLE     CLOUDY    47  41  80 NE10      29.71F
6HR MIN TEMP:  40; 6HR MAX TEMP:  47;


$$
MOZ066>068-077>081-088>096-101>105-231900-
...SOUTHWEST MISSOURI...

CITY           SKY/WX    TMP DP  RH WIND       PRES   REMARKS
SPRINGFIELD    MOSUNNY   70  54  56 S21G26    29.55F
6HR MIN TEMP:  53; 6HR MAX TEMP:  70;

JOPLIN         MOSUNNY   77  52  41 S13       29.50F
6HR MIN TEMP:  54; 6HR MAX TEMP:  77;

BRANSON        MOSUNNY   72  52  49 S15G21    29.61F

$$
MOZ032>034-039>042-045>050-055>058-069>072-231900-
...CENTRAL MISSOURI...

CITY           SKY/WX    TMP DP  RH WIND       PRES   REMARKS
COLUMBIA       CLOUDY    58  52  80 NE10      29.65F
6HR MIN TEMP:  50; 6HR MAX TEMP:  58; 6HR PCP: TRACE;

JEFFERSON CITY CLOUDY    56  54  93 E6        29.65F
6HR MIN TEMP:  43; 6HR MAX TEMP:  56;

ROLLA          PTSUNNY   63  55  75 SE9       29.63F
6HR MIN TEMP:  51; 6HR MAX TEMP:  63;

SEDALIA        CLOUDY    65  52  62 NE14      29.63F
6HR MIN TEMP:  50; 6HR MAX TEMP:  65;

WHITEMAN AFB   PTSUNNY   59  54  83 NE16      29.58F
WARRENSBURG    CLOUDY    55  45  67 NE17      29.60F
OSAGE BEACH    MOSUNNY   68  55  63 SE8       29.62F

$$
MOZ051-052-059>065-231900-
...EAST CENTRAL MISSOURI...

CITY           SKY/WX    TMP DP  RH WIND       PRES   REMARKS
ST LOUIS INTL  PTSUNNY   70  54  56 SE10      29.67F
6HR MIN TEMP:  50; 6HR MAX TEMP:  70;

SPIRIT OF STL  PTSUNNY   69  56  62 E7        29.65F
6HR MIN TEMP:  43; 6HR MAX TEMP:  70;

ST CHARLES     MOSUNNY   66  56  70 E12       29.66F
6HR MIN TEMP:  44; 6HR MAX TEMP:  66;


$$
MOZ072>076-082>087-097>100-106>115-231900-
...SOUTH CENTRAL AND SOUTHEAST MISSOURI...

CITY           SKY/WX    TMP DP  RH WIND       PRES   REMARKS
CAPE GIRARDEAU CLOUDY    67  57  70 S16       29.73F
6HR MIN TEMP:  52; 6HR MAX TEMP:  67;

FARMINGTON     CLOUDY    58  55  90 S13G18    29.72F
6HR MIN TEMP:  53; 6HR MAX TEMP:  59;

POPLAR BLUFF   PTSUNNY   66  59  78 S15       29.73F
6HR MIN TEMP:  50; 6HR MAX TEMP:  66;

WEST PLAINS    MOSUNNY   67  57  70 S12G21    29.67F
6HR MIN TEMP:  52; 6HR MAX TEMP:  67;


$$



USA.gov is the U.S. government's official web portal to all federal, state and local government web resources and services.